Temperature
22 21 21 21 20 20 20 20 19 19 19 19 18 18 18 18 18 18 18 18 18 18 18 18 18 17 17 17 17 17 17 17 17 17 17 17 17 17 16 16 16 16 16
22 22 21 21 21 20 20 20 20 19 19 19 19 18 18 18 18 18 18 18 18 18 17 17 17 17 17 17 17 17 17 17 17 17 17 16 16 16 16 16 16 16 16
22 22 22 21 21 21 20 20 20 20 19 19 19 18 18 18 18 18 18 18 17 17 17 17 17 17 17 17 17 17 17 17 17 17 16 16 16 16 16 16 16 16 16
23 23 22 22 21 21 21 20 20 20 19 19 19 19 18 18 18 18 18 18 18 17 17 17 17 17 17 17 17 17 17 17 17 17 16 16 16 16 15 15 15 15 15
23 23 23 23 22 22 21 21 20 20 20 19 19 19 19 18 18 18 18 18 17 17 17 17 17 17 17 17 17 17 17 17 17 17 16 16 16 16 15 15 15 15 15
24 24 24 23 23 22 21 21 21 20 20 20 19 19 19 18 18 18 18 18 18 17 17 17 17 17 17 17 17 17 17 17 16 16 16 16 16 16 16 15 15 15 15
24 24 24 23 23 22 22 22 21 21 20 20 20 19 19 19 18 18 18 18 18 18 17 17 17 17 17 17 17 17 17 16 16 16 16 16 16 16 16 15 15 15 14
24 24 25 24 24 23 23 22 22 21 21 20 20 19 19 19 19 18 18 18 18 18 17 17 17 17 17 17 17 17 16 16 16 16 16 16 16 16 15 15 15 14 14
25 25 25 25 24 24 23 23 22 21 21 20 20 20 19 19 19 18 18 18 18 18 17 17 17 17 17 17 17 17 16 16 16 16 16 16 16 15 15 15 15 15 14
25 25 25 25 24 24 23 23 22 22 21 21 20 20 20 19 19 18 18 18 18 18 17 17 17 17 17 17 16 16 16 16 16 16 16 16 15 15 15 15 15 15 14
25 25 25 25 25 24 23 23 23 22 21 21 21 20 20 19 19 19 18 18 18 18 17 17 17 17 17 17 16 16 16 16 16 16 16 15 15 15 15 15 14 14 14
25 25 25 25 24 24 24 23 23 22 22 21 21 20 20 19 19 19 19 18 18 18 17 17 17 17 17 16 16 16 16 16 16 15 15 15 15 15 15 14 14 14 14
25 25 25 25 24 24 24 23 23 22 22 21 21 20 20 20 19 19 19 18 18 18 17 17 17 17 17 16 16 16 16 15 15 15 15 15 15 15 15 14 14 14 14
25 25 24 24 24 24 24 23 23 22 22 21 21 20 20 20 19 19 18 18 18 18 17 17 17 17 17 16 16 16 16 15 15 15 15 15 15 15 14 14 14 14 14
25 25 25 24 24 24 24 23 23 22 22 21 21 20 20 19 19 19 18 18 18 17 17 17 17 17 16 16 16 16 16 15 15 15 15 15 14 14 14 14 14 14 13
25 25 25 25 24 24 24 24 23 23 22 21 21 20 20 19 19 19 18 18 18 17 17 17 17 17 16 16 16 16 15 15 15 15 15 14 14 14 14 14 14 13 13
25 25 25 25 25 24 24 24 23 23 22 21 21 20 20 19 19 18 18 18 18 17 17 17 16 16 16 16 16 15 15 15 15 14 14 14 14 14 14 14 14 13 13
25 25 25 25 25 24 24 23 23 22 22 21 21 20 20 19 19 19 18 18 17 17 17 17 16 16 16 16 16 15 15 15 14 14 14 14 14 14 14 13 13 13 13
25 26 25 25 25 24 24 23 23 22 22 21 21 20 20 19 19 18 18 18 17 17 17 17 17 16 16 16 16 15 15 15 15 14 14 14 14 13 13 13 13 13 13
25 25 25 25 24 24 24 23 23 22 22 21 21 20 20 19 19 18 18 18 17 17 17 17 16 16 16 16 16 15 15 15 14 14 14 14 13 13 13 13 13 12 12
24 24 24 24 24 24 23 23 22 22 22 21 20 20 20 19 19 18 18 17 17 17 17 17 16 16 16 16 15 15 15 15 14 14 14 14 13 13 13 13 13 12 12
24 24 23 23 23 23 23 22 22 22 21 21 20 20 19 19 18 18 18 17 17 17 17 16 16 16 16 16 15 15 15 15 14 14 14 14 13 13 13 13 12 12 12
23 23 23 23 22 22 22 22 22 21 21 20 20 19 19 18 18 18 17 17 17 16 16 16 16 16 16 16 15 15 15 14 14 14 14 13 13 13 13 12 12 12 12
22 22 22 22 22 22 22 21 21 21 20 20 19 19 18 18 18 18 17 17 17 16 16 16 16 16 16 16 15 15 15 14 14 14 14 13 13 13 12 12 12 12 12
21 21 21 21 21 21 21 21 20 20 20 19 19 18 18 18 17 17 17 17 17 16 16 16 16 16 16 16 15 15 15 14 14 14 13 13 13 13 12 12 12 12 11
21 21 21 21 21 20 20 20 20 19 19 19 18 18 18 17 17 17 17 17 16 16 16 16 16 16 15 15 15 14 14 14 14 13 13 13 13 12 12 12 12 12 12
Wind_Speed
8 7 7 7 6 5 5 5 5 4 3 2 2 1 1 0 0 0 1 1 1 1 2 1 1 1 1 1 1 2 2 1 2 2 2 2 2 2 1 1 1 1 1
7 7 7 7 7 7 6 5 5 4 4 3 2 2 2 1 1 1 1 1 1 1 1 1 1 1 1 1 1 2 1 1 1 2 1 1 2 2 2 1 1 1 2
11 9 9 8 8 8 8 7 6 5 4 4 3 3 3 2 1 1 1 2 1 1 1 1 1 1 1 1 1 2 2 2 1 1 2 2 1 1 1 2 1 2 1
11 10 10 9 9 9 8 7 6 5 4 4 4 4 3 2 2 1 1 2 2 1 1 1 1 1 1 1 2 2 2 3 2 1 1 1 2 2 0 1 2 1 1
12 12 12 11 10 9 8 7 6 5 5 5 5 5 3 2 1 0 1 1 2 2 1 1 1 1 1 1 1 1 1 1 2 1 1 1 1 1 2 1 1 1 1
12 11 10 8 8 8 8 7 7 6 5 5 5 6 5 4 2 1 1 1 1 1 2 1 0 1 1 1 2 1 1 1 1 1 1 1 2 2 2 2 1 1 1
12 11 11 10 10 9 9 8 8 7 6 6 6 6 6 5 4 3 2 1 0 1 2 1 1 1 1 1 1 1 1 1 1 1 1 1 1 1 2 2 1 1 1
11 12 12 12 11 11 10 9 9 8 7 7 6 5 5 4 3 3 3 2 2 2 1 1 0 0 0 0 1 1 1 1 1 1 1 0 1 1 2 2 2 1 0
12 12 11 11 10 10 10 10 10 9 8 7 6 5 5 5 4 3 3 2 2 1 1 1 1 0 1 1 1 1 0 1 1 1 1 0 1 1 1 2 2 2 1
10 10 10 11 10 10 9 9 9 9 8 8 7 6 5 5 4 3 3 3 2 1 1 1 1 1 1 1 1 1 0 0 0 0 0 0 0 1 1 1 1 2 2
10 10 10 9 9 8 8 9 8 8 7 8 7 6 5 5 4 4 4 3 2 2 2 2 1 1 0 1 1 1 0 0 0 0 0 0 1 1 1 1 1 1 2
8 8 9 8 9 9 8 9 8 8 8 8 7 7 5 5 5 5 4 4 3 2 2 2 2 1 1 0 1 0 0 0 0 0 0 0 1 1 1 1 1 1 2
7 7 7 8 9 9 9 8 8 8 7 7 7 6 6 6 6 5 4 4 4 3 2 2 2 2 1 1 1 1 1 0 0 0 0 0 1 1 1 1 1 2 2
7 8 8 8 8 8 8 8 8 8 8 7 8 7 7 7 6 5 5 4 4 4 3 3 3 3 2 2 1 1 1 0 0 0 1 1 1 1 1 1 2 2 2
7 8 9 8 8 8 7 8 8 7 8 8 8 8 6 6 5 5 5 4 4 4 3 3 2 2 2 2 2 2 2 1 1 0 1 1 1 1 1 2 3 3 3
8 8 8 8 9 9 9 8 8 8 8 8 8 7 6 6 6 6 5 4 4 3 3 3 3 3 3 4 5 4 2 2 2 1 1 1 0 0 1 2 4 4 4
8 8 9 10 10 10 9 10 9 8 8 8 7 7 7 7 7 6 5 5 5 4 4 4 4 4 4 4 5 5 3 3 2 2 1 1 0 1 1 2 2 2 2
8 8 8 9 8 8 8 8 8 8 8 8 7 7 7 7 6 6 6 5 4 4 4 4 4 4 4 5 5 5 4 3 2 2 2 2 1 1 2 2 2 1 0
7 7 8 7 8 9 9 8 8 8 8 8 8 8 8 7 6 7 7 5 5 5 4 4 4 4 4 4 5 5 3 2 2 2 2 2 2 3 4 4 2 0 1
3 4 5 6 7 8 9 9 8 8 9 9 8 8 8 8 7 7 6 4 4 5 4 4 4 4 4 5 5 6 3 3 2 2 2 3 3 4 5 4 3 2 2
3 5 6 6 7 8 10 9 8 9 8 6 6 6 7 7 7 6 5 4 4 4 4 4 4 4 5 5 6 7 5 5 4 3 2 2 4 4 5 5 4 5 3
4 5 6 5 5 7 9 9 9 7 6 6 6 6 6 6 6 5 5 5 5 5 4 4 4 4 4 5 6 8 8 7 5 4 4 4 5 5 5 5 4 4 3
4 5 6 5 4 6 8 8 6 6 6 6 6 6 6 5 6 6 6 5 5 5 5 4 5 5 4 4 7 8 9 9 6 5 5 5 5 5 4 4 4 4 3
3 4 5 5 4 5 6 6 5 6 7 7 6 6 6 5 5 5 6 6 6 6 6 6 6 5 5 5 4 5 5 6 5 4 3 4 4 3 3 2 2 3 3
3 4 5 5 5 4 5 5 5 6 6 6 6 5 6 6 6 5 6 7 7 8 8 8 7 6 7 8 9 7 6 5 5 4 2 2 2 3 3 3 3 3 3
3 3 3 4 4 4 4 4 5 6 6 5 5 5 5 5 5 5 4 7 8 9 11 11 9 7 8 7 9 10 9 8 8 5 3 4 5 5 5 5 4 4 4
Wind_Direction
215 201 197 188 179 181 180 180 174 174 153 142 147 139 150 79 22 264 267 261 245 193 165 168 136 138 139 163 145 136 124 115 122 96 47 21 36 48 26 21 18 2 338
207 199 194 187 185 189 189 186 186 181 176 170 159 151 140 125 121 8 1 300 256 220 176 171 201 167 146 134 132 141 133 147 151 138 114 8 6 21 31 45 48 2 16
207 201 196 195 192 193 193 196 195 187 180 162 123 100 79 57 37 1 337 326 310 280 243 219 184 175 170 190 190 170 166 194 216 178 162 162 222 316 1 28 26 21 19
205 200 197 197 198 200 191 189 187 182 175 158 152 154 160 175 208 234 288 337 348 316 270 239 208 204 191 203 218 190 191 181 211 226 214 190 169 179 273 4 22 28 16
202 201 200 199 198 192 184 183 180 182 175 166 167 162 170 184 178 174 322 339 347 326 307 273 210 232 227 228 233 199 189 194 202 206 188 175 184 187 193 248 317 7 12
200 199 197 190 190 184 180 178 178 186 179 173 174 175 180 179 166 187 265 310 328 329 327 292 260 227 226 232 228 201 188 202 203 203 184 187 193 193 190 212 242 299 340
194 191 188 188 188 184 184 181 179 188 185 180 184 185 185 182 189 199 208 217 265 295 296 293 245 242 231 218 194 163 184 191 182 200 222 217 235 186 169 174 199 243 315
192 193 191 189 191 189 185 182 183 190 187 184 189 188 183 185 197 202 198 201 209 231 248 191 185 248 103 144 148 141 194 161 180 230 230 237 253 178 166 167 167 205 270
190 191 188 187 189 188 189 187 186 189 188 187 185 187 187 188 196 195 191 200 212 207 172 138 105 44 66 76 108 107 202 169 193 235 238 239 244 174 163 165 176 176 212
183 184 186 186 187 187 184 184 186 188 187 186 190 194 193 195 192 183 188 193 200 184 141 127 105 38 38 56 88 82 355 155 258 225 218 277 351 132 134 164 179 185 183
183 184 186 184 177 173 176 182 182 178 182 185 186 188 187 187 184 189 198 196 193 180 173 175 159 125 28 48 86 70 56 102 19 8 120 17 88 107 113 121 125 137 150
176 176 177 173 172 175 178 181 181 184 188 186 184 187 183 176 183 195 200 194 193 189 183 174 165 176 173 133 142 182 69 126 74 338 57 16 76 81 111 125 129 137 143
164 162 162 169 176 179 181 180 181 186 184 179 180 181 182 182 192 198 194 189 189 191 183 175 186 202 202 198 202 193 214 199 221 242 213 279 100 81 114 138 142 139 129
169 166 168 175 180 181 178 177 177 176 173 171 175 182 190 191 194 192 190 190 186 189 198 202 208 207 205 205 205 184 190 201 241 275 250 234 192 200 182 155 152 138 128
175 180 179 179 177 174 174 175 174 171 168 168 178 188 188 183 180 182 188 190 190 197 201 202 208 208 200 207 200 201 197 194 195 340 302 262 188 182 190 172 166 154 149
190 188 183 179 181 181 180 177 175 172 166 173 185 184 176 176 182 187 187 188 193 195 194 206 212 221 228 213 198 193 197 189 188 220 294 308 329 151 129 149 166 172 172
193 187 188 190 188 185 180 180 177 166 168 177 181 182 182 185 190 190 187 196 203 203 206 217 219 230 239 222 207 199 193 197 205 211 230 278 36 104 113 103 106 132 158
196 195 192 190 183 175 172 169 163 164 171 177 182 185 187 191 188 186 195 204 204 205 215 219 224 232 246 228 210 200 193 201 216 218 212 208 217 166 140 125 109 98 159
202 196 187 182 172 168 163 156 162 166 173 184 190 190 187 189 191 198 205 208 204 211 218 217 216 227 249 234 209 191 187 200 229 238 223 205 199 185 153 142 144 144 315
180 176 163 157 164 168 157 157 169 175 191 197 196 190 186 189 197 204 207 206 203 212 210 220 220 221 239 240 218 195 194 204 221 231 229 206 195 187 171 167 169 198 234
152 146 142 158 173 165 157 166 176 195 203 193 186 186 189 193 198 198 198 195 197 201 207 217 226 226 236 240 223 203 201 204 207 216 227 225 195 187 184 182 192 211 199
127 142 148 162 164 159 163 176 195 200 180 174 182 190 191 197 199 193 197 191 190 201 215 222 238 241 239 233 227 213 207 202 203 216 220 216 195 192 190 194 207 193 163
153 152 155 156 161 167 170 185 199 174 167 173 188 194 194 197 195 195 198 196 196 208 218 221 234 244 239 234 224 217 212 205 208 217 208 201 197 195 199 205 195 173 168
162 149 145 159 179 181 180 190 182 169 171 184 195 194 196 205 203 202 201 202 205 211 218 223 232 237 235 232 224 218 214 210 212 215 205 193 190 187 186 189 193 190 195
180 164 166 179 190 185 186 184 175 168 178 190 198 199 201 206 211 211 212 211 215 210 211 222 224 225 234 231 212 204 207 206 202 177 163 182 196 204 208 210 209 205 204
173 163 169 177 183 181 186 186 181 175 179 191 201 207 208 209 211 214 229 231 225 221 217 218 217 227 229 221 207 206 205 199 179 167 197 211 214 219 220 220 221 219 218
Height
1536 1538 1540 1542 1544 1545 1547 1548 1549 1550 1551 1552 1553 1553 1554 1554 1555 1555 1555 1555 1555 1555 1555 1555 1555 1555 1555 1554 1554 1554 1554 1554 1554 1554 1553 1553 1553 1553 1553 1553 1553 1553 1553
1534 1536 1538 1540 1542 1544 1546 1547 1548 1550 1551 1552 1553 1553 1554 1554 1555 1555 1555 1555 1555 1555 1555 1555 1554 1554 1554 1554 1553 1553 1553 1553 1553 1553 1552 1552 1553 1552 1552 1552 1552 1551 1551
1531 1533 1536 1538 1540 1543 1544 1546 1547 1549 1550 1551 1552 1553 1554 1554 1554 1555 1555 1555 1555 1555 1555 1554 1554 1553 1553 1553 1553 1553 1552 1552 1552 1552 1552 1552 1551 1551 1551 1551 1551 1550 1550
1528 1531 1533 1536 1538 1541 1543 1545 1547 1548 1549 1551 1551 1552 1553 1553 1554 1554 1554 1554 1554 1554 1554 1554 1553 1553 1552 1552 1552 1552 1551 1551 1550 1551 1551 1551 1550 1550 1550 1550 1549 1549 1549
1524 1527 1530 1533 1536 1539 1541 1543 1545 1547 1548 1549 1550 1551 1552 1553 1553 1553 1553 1553 1553 1553 1553 1553 1552 1552 1551 1551 1551 1550 1550 1550 1549 1549 1549 1549 1549 1548 1548 1548 1548 1548 1548
1520 1524 1527 1531 1534 1536 1539 1541 1543 1545 1547 1548 1549 1550 1551 1552 1552 1552 1552 1553 1552 1552 1552 1552 1551 1551 1550 1550 1550 1549 1549 1548 1548 1548 1547 1547 1547 1546 1546 1546 1545 1545 1546
1516 1520 1524 1527 1530 1533 1536 1538 1541 1543 1545 1546 1547 1548 1550 1550 1551 1551 1551 1551 1551 1551 1551 1550 1550 1550 1549 1549 1549 1548 1547 1547 1547 1546 1546 1545 1545 1545 1545 1544 1544 1543 1544
1513 1517 1520 1524 1528 1531 1533 1536 1538 1541 1543 1544 1545 1547 1548 1549 1549 1550 1550 1550 1550 1550 1550 1549 1549 1549 1548 1548 1547 1547 1546 1546 1545 1545 1544 1543 1543 1543 1542 1542 1542 1541 1542
1509 1513 1518 1521 1525 1528 1531 1534 1536 1538 1540 1542 1544 1545 1546 1547 1548 1548 1549 1549 1549 1549 1549 1548 1548 1548 1547 1547 1546 1545 1545 1544 1543 1543 1542 1542 1541 1541 1540 1540 1541 1541 1540
1506 1511 1515 1518 1522 1526 1529 1532 1534 1536 1538 1540 1541 1543 1544 1545 1546 1547 1547 1548 1548 1548 1548 1547 1547 1547 1547 1546 1545 1544 1543 1543 1542 1541 1541 1540 1540 1539 1539 1539 1539 1539 1539
1504 1508 1512 1516 1519 1523 1526 1529 1531 1534 1536 1537 1539 1540 1541 1543 1544 1545 1546 1546 1546 1547 1547 1546 1546 1546 1545 1545 1544 1543 1542 1542 1541 1540 1540 1539 1539 1538 1538 1538 1537 1537 1537
1502 1506 1510 1513 1517 1520 1523 1526 1529 1531 1533 1535 1536 1538 1539 1541 1542 1543 1544 1545 1545 1545 1545 1545 1545 1545 1544 1544 1543 1542 1541 1541 1540 1539 1539 1538 1538 1537 1537 1536 1536 1536 1536
1501 1504 1507 1511 1514 1517 1521 1524 1526 1529 1531 1533 1534 1535 1537 1538 1540 1541 1542 1543 1543 1544 1544 1544 1544 1544 1543 1542 1542 1541 1541 1540 1539 1539 1538 1537 1537 1536 1536 1535 1535 1535 1535
1500 1502 1505 1508 1512 1515 1518 1521 1524 1527 1529 1530 1531 1533 1535 1536 1538 1539 1540 1541 1542 1542 1542 1542 1542 1542 1542 1541 1541 1541 1540 1539 1539 1538 1538 1537 1537 1536 1535 1535 1534 1534 1534
1498 1501 1503 1506 1509 1513 1516 1519 1522 1524 1526 1528 1529 1531 1533 1534 1536 1537 1538 1539 1540 1540 1541 1541 1541 1541 1540 1540 1540 1539 1539 1538 1538 1538 1537 1537 1536 1535 1535 1534 1534 1534 1533
1496 1499 1502 1505 1507 1510 1513 1516 1519 1522 1524 1526 1527 1529 1531 1532 1533 1535 1536 1537 1538 1538 1539 1539 1539 1539 1539 1538 1538 1538 1537 1537 1537 1536 1536 1536 1535 1535 1534 1534 1533 1533 1532
1493 1496 1499 1502 1505 1508 1512 1514 1517 1520 1522 1523 1525 1527 1528 1529 1531 1532 1533 1534 1535 1536 1536 1536 1537 1537 1537 1537 1536 1536 1536 1535 1535 1535 1535 1534 1534 1534 1533 1532 1532 1531 1531
1492 1494 1497 1500 1503 1506 1510 1513 1515 1517 1519 1521 1523 1524 1526 1527 1528 1529 1530 1531 1532 1532 1533 1533 1534 1534 1534 1534 1534 1534 1534 1533 1533 1533 1533 1533 1532 1532 1532 1531 1531 1530 1530
1489 1492 1495 1499 1501 1504 1507 1510 1513 1515 1517 1518 1520 1521 1523 1524 1525 1526 1527 1528 1528 1529 1529 1530 1531 1531 1531 1531 1531 1532 1531 1531 1531 1531 1531 1531 1530 1530 1530 1529 1529 1529 1528
1488 1491 1493 1497 1499 1502 1505 1508 1510 1512 1514 1515 1517 1518 1520 1521 1522 1523 1524 1524 1525 1525 1526 1527 1527 1528 1528 1528 1528 1529 1529 1528 1528 1528 1528 1528 1528 1528 1527 1527 1526 1526 1526
1487 1489 1491 1494 1497 1500 1502 1505 1507 1509 1511 1513 1514 1516 1517 1518 1519 1520 1520 1521 1521 1522 1522 1523 1524 1524 1524 1525 1525 1525 1526 1525 1525 1524 1525 1525 1525 1525 1525 1524 1524 1524 1524
1485 1487 1490 1492 1495 1497 1499 1502 1504 1506 1508 1510 1511 1512 1513 1514 1515 1516 1517 1517 1518 1518 1519 1519 1520 1520 1521 1521 1521 1522 1522 1522 1521 1521 1521 1522 1522 1522 1522 1522 1522 1522 1522
1484 1486 1488 1490 1492 1494 1496 1499 1501 1503 1505 1506 1508 1509 1510 1511 1511 1512 1512 1513 1514 1514 1514 1515 1515 1516 1516 1516 1517 1517 1517 1517 1518 1518 1518 1518 1519 1519 1519 1519 1519 1519 1519
1482 1484 1486 1487 1489 1491 1493 1496 1498 1499 1501 1502 1504 1505 1505 1506 1507 1508 1508 1509 1509 1510 1510 1510 1511 1511 1511 1512 1512 1512 1512 1513 1513 1514 1514 1515 1515 1515 1515 1516 1516 1516 1515
1480 1481 1483 1485 1486 1488 1491 1493 1494 1496 1497 1498 1499 1500 1501 1502 1502 1503 1503 1504 1504 1505 1506 1506 1506 1506 1506 1507 1507 1507 1507 1508 1509 1509 1509 1510 1511 1511 1511 1511 1511 1511 1511
1478 1479 1480 1482 1484 1485 1487 1489 1491 1492 1493 1493 1494 1495 1496 1497 1497 1498 1498 1498 1499 1500 1500 1501 1501 1501 1501 1502 1502 1502 1503 1504 1504 1505 1505 1505 1506 1506 1507 1507 1507 1507 1507